Weather History for KBYY - October, 2012

Change the Weather History Date:

Sunday, October 7, 2012

  Actual Average (KLBX) Record (KLBX)
Temperature  
Mean Temperature 64 °F -  
Max Temperature 72 °F 80 °F 89 °F (2011)
Min Temperature 57 °F 63 °F 48 °F (2010)
Growing Degree Days 14 (Base 50)    
Moisture  
Dew Point 55 °F    
Average Humidity 74    
Maximum Humidity 99    
Minimum Humidity 54    
Precipitation  
Precipitation 0.00 in - - ()
Sea Level Pressure  
Sea Level Pressure 30.11 in    
Wind  
Wind Speed 11 mph (North)    
Max Wind Speed 16 mph    
Max Gust Speed 23 mph    
Visibility 10 miles    
Events      
Averages and records for this station are not official NWS values.
T = Trace of Precipitation, MM = Missing Value Source: NWS Daily Summary

Daily Weather History Graph

Daily Weather History Graph

Search for Another Location

Airport or City:

Trip Planner

Search our weather history database for the weather conditions in past years. The results will help you decide how hot, cold, wet, or windy it might be!

Date:

Astronomy

Oct. 07, 2012 Rise Set
Actual Time 7:20 AM CDT 7:01 PM CDT
Civil Twilight 6:56 AM CDT 7:25 PM CDT
Nautical Twilight 6:28 AM CDT 7:52 PM CDT
Astronomical Twilight 6:01 AM CDT 8:20 PM CDT
Moon No Moon Rise 1:39 PM CDT (10/7)
Length of Visible Light 12h 28m
Length of Day
11h 41m
Waning Gibbous, 56% of the Moon is Illuminated
Oct 7
Waning Gibbous
Oct 8
Last Quarter
Oct 15
New
Oct 21
First Quarter
Oct 29
Full

Hourly Weather History & Observations

Time (CDT) Temp. Dew Point Humidity Pressure Visibility Wind Dir Wind Speed Gust Speed Precip Events Conditions
12:15 AM 70.5 °F 70.3 °F 99% 30.03 in 7.0 mi NNE 10.4 mph - N/A   Mostly Cloudy
12:35 AM 70.2 °F 70.0 °F 99% 30.03 in 10.0 mi NNE 10.4 mph 19.6 mph N/A   Mostly Cloudy
12:55 AM 70.2 °F 69.6 °F 98% 30.03 in 10.0 mi NNE 11.5 mph - N/A   Overcast
1:15 AM 69.8 °F 68.7 °F 96% 30.03 in 10.0 mi NNE 10.4 mph 18.4 mph N/A   Overcast
1:35 AM 69.4 °F 66.4 °F 90% 30.04 in 10.0 mi NNE 12.7 mph - N/A   Overcast
1:55 AM 69.1 °F 65.1 °F 87% 30.04 in 10.0 mi NNE 13.8 mph 19.6 mph N/A   Overcast
2:15 AM 68.5 °F 64.8 °F 88% 30.05 in 10.0 mi NNE 12.7 mph 16.1 mph N/A   Overcast
2:35 AM 68.0 °F 64.8 °F 89% 30.05 in 10.0 mi North 15.0 mph - N/A   Overcast
2:55 AM 67.3 °F 62.1 °F 83% 30.06 in 10.0 mi NNE 16.1 mph 21.9 mph N/A   Overcast
3:15 AM 66.9 °F 61.0 °F 81% 30.06 in 10.0 mi NNE 12.7 mph 19.6 mph N/A   Overcast
3:35 AM 66.4 °F 60.4 °F 81% 30.07 in 10.0 mi NNE 16.1 mph 19.6 mph N/A   Overcast
3:55 AM 65.5 °F 59.2 °F 80% 30.07 in 10.0 mi NNE 13.8 mph 20.7 mph N/A   Overcast
4:15 AM 64.9 °F 58.6 °F 80% 30.07 in 10.0 mi North 12.7 mph 17.3 mph N/A   Overcast
4:35 AM 64.0 °F 58.6 °F 83% 30.08 in 10.0 mi North 13.8 mph 23.0 mph N/A   Overcast
4:55 AM 62.8 °F 57.7 °F 84% 30.09 in 10.0 mi North 10.4 mph - N/A   Overcast
5:15 AM 62.2 °F 57.2 °F 84% 30.09 in 10.0 mi North 10.4 mph 19.6 mph N/A   Overcast
5:35 AM 61.7 °F 56.5 °F 83% 30.10 in 10.0 mi North 11.5 mph 20.7 mph N/A   Overcast
5:55 AM 61.2 °F 56.1 °F 83% 30.10 in 10.0 mi North 12.7 mph 16.1 mph N/A   Overcast
6:15 AM 60.8 °F 55.8 °F 83% 30.10 in 10.0 mi North 15.0 mph 20.7 mph N/A   Overcast
6:35 AM 60.3 °F 55.2 °F 83% 30.11 in 10.0 mi North 12.7 mph 20.7 mph N/A   Overcast
6:55 AM 59.7 °F 54.5 °F 83% 30.11 in 10.0 mi North 13.8 mph 20.7 mph N/A   Overcast
7:15 AM 59.4 °F 54.0 °F 82% 30.12 in 10.0 mi North 12.7 mph 18.4 mph N/A   Overcast
7:35 AM 59.2 °F 53.6 °F 82% 30.12 in 10.0 mi NNE 11.5 mph 17.3 mph N/A   Overcast
7:55 AM 59.0 °F 53.4 °F 82% 30.14 in 10.0 mi North 8.1 mph 18.4 mph N/A   Overcast
8:15 AM 59.0 °F 53.2 °F 81% 30.15 in 10.0 mi NNE 10.4 mph 17.3 mph N/A   Overcast
8:35 AM 59.2 °F 52.9 °F 80% 30.15 in 10.0 mi NNE 9.2 mph 19.6 mph N/A   Overcast
8:55 AM 59.2 °F 52.3 °F 78% 30.16 in 10.0 mi NNE 10.4 mph 20.7 mph N/A   Overcast
9:15 AM 59.7 °F 52.2 °F 76% 30.16 in 10.0 mi North 15.0 mph 20.7 mph N/A   Overcast
9:35 AM 60.1 °F 52.0 °F 75% 30.16 in 10.0 mi North 13.8 mph 18.4 mph N/A   Overcast
9:55 AM 60.4 °F 51.6 °F 73% 30.17 in 10.0 mi North 12.7 mph 19.6 mph N/A   Overcast
10:15 AM 61.3 °F 51.8 °F 71% 30.17 in 10.0 mi North 12.7 mph 17.3 mph N/A   Overcast
10:35 AM 61.7 °F 51.1 °F 68% 30.17 in 10.0 mi North 16.1 mph 20.7 mph N/A   Overcast
10:55 AM 62.1 °F 51.3 °F 68% 30.16 in 10.0 mi NNE 11.5 mph 21.9 mph N/A   Overcast
11:15 AM 63.0 °F 51.4 °F 66% 30.16 in 10.0 mi NNE 12.7 mph 20.7 mph N/A   Overcast
11:35 AM 63.7 °F 51.6 °F 65% 30.16 in 10.0 mi North 12.7 mph 16.1 mph N/A   Overcast
11:55 AM 64.4 °F 51.8 °F 64% 30.16 in 10.0 mi North 12.7 mph 16.1 mph N/A   Overcast
12:15 PM 64.6 °F 51.6 °F 63% 30.15 in 10.0 mi NNE 10.4 mph 17.3 mph N/A   Overcast
12:35 PM 64.8 °F 51.8 °F 63% 30.14 in 10.0 mi North 13.8 mph 17.3 mph N/A   Overcast
12:55 PM 65.8 °F 52.2 °F 61% 30.14 in 10.0 mi NE 8.1 mph - N/A   Overcast
1:15 PM 66.2 °F 52.2 °F 61% 30.13 in 10.0 mi NNE 5.8 mph - N/A   Overcast
1:35 PM 66.6 °F 52.3 °F 60% 30.12 in 10.0 mi NNE 4.6 mph - N/A   Overcast
1:55 PM 67.6 °F 52.9 °F 59% 30.11 in 10.0 mi NNE 6.9 mph - N/A   Overcast
2:15 PM 68.0 °F 51.8 °F 56% 30.11 in 10.0 mi NW 5.8 mph - N/A   Overcast
2:35 PM 69.1 °F 53.2 °F 57% 30.10 in 10.0 mi NNE 4.6 mph - N/A   Overcast
2:55 PM 69.6 °F 53.6 °F 57% 30.10 in 10.0 mi NNE 4.6 mph - N/A   Overcast
3:15 PM 70.2 °F 54.1 °F 57% 30.09 in 10.0 mi North 6.9 mph - N/A   Overcast
3:35 PM 72.0 °F 54.7 °F 54% 30.08 in 10.0 mi North 9.2 mph - N/A   Overcast
3:55 PM 71.1 °F 54.1 °F 55% 30.08 in 10.0 mi North 8.1 mph - N/A   Overcast
4:15 PM 70.2 °F 54.9 °F 58% 30.08 in 10.0 mi NNW 8.1 mph - N/A   Overcast
4:35 PM 70.0 °F 54.7 °F 58% 30.07 in 10.0 mi NNW 5.8 mph - N/A   Overcast
4:55 PM 69.8 °F 54.9 °F 59% 30.07 in 10.0 mi North 6.9 mph - N/A   Scattered Clouds
5:15 PM 71.4 °F 55.0 °F 56% 30.07 in 10.0 mi NNE 6.9 mph - N/A   Scattered Clouds
5:35 PM 71.6 °F 54.9 °F 55% 30.07 in 10.0 mi North 6.9 mph - N/A   Clear
5:55 PM 70.9 °F 54.7 °F 56% 30.07 in 10.0 mi North 8.1 mph - N/A   Clear
6:15 PM 69.3 °F 54.0 °F 58% 30.08 in 10.0 mi NNW 9.2 mph - N/A   Clear
6:35 PM 67.6 °F 53.8 °F 61% 30.08 in 10.0 mi North 9.2 mph - N/A   Clear
6:55 PM 65.7 °F 54.1 °F 66% 30.09 in 10.0 mi North 6.9 mph - N/A   Clear
7:15 PM 63.9 °F 54.1 °F 71% 30.10 in 10.0 mi NNW 4.6 mph - N/A   Clear
7:35 PM 62.4 °F 54.1 °F 74% 30.11 in 10.0 mi NNW 4.6 mph - N/A   Clear
7:55 PM 61.3 °F 54.5 °F 78% 30.11 in 10.0 mi North 4.6 mph - N/A   Clear
8:15 PM 60.4 °F 54.5 °F 81% 30.12 in 10.0 mi North 6.9 mph - N/A   Clear
8:35 PM 59.0 °F 51.8 °F 77% 30.13 in 10.0 mi North 6.9 mph - N/A   Clear
8:55 PM 59.9 °F 52.5 °F 77% 30.13 in 10.0 mi North 8.1 mph - N/A   Clear
9:15 PM 59.2 °F 52.3 °F 78% 30.14 in 10.0 mi North 5.8 mph - N/A   Clear
9:35 PM 58.3 °F 52.0 °F 80% 30.15 in 10.0 mi NNW 5.8 mph - N/A   Clear
9:55 PM 58.1 °F 51.8 °F 80% 30.15 in 10.0 mi North 5.8 mph - N/A   Mostly Cloudy
10:15 PM 57.7 °F 51.8 °F 81% 30.16 in 10.0 mi North 5.8 mph - N/A   Scattered Clouds
10:35 PM 57.7 °F 52.0 °F 81% 30.15 in 10.0 mi North 8.1 mph - N/A   Mostly Cloudy
10:55 PM 58.1 °F 51.8 °F 80% 30.15 in 10.0 mi North 4.6 mph - N/A   Scattered Clouds
11:15 PM 57.6 °F 52.0 °F 82% 30.16 in 10.0 mi North 5.8 mph - N/A   Overcast
11:35 PM 58.6 °F 52.2 °F 79% 30.15 in 10.0 mi North 6.9 mph - N/A   Overcast
11:55 PM 59.4 °F 52.2 °F 77% 30.15 in 10.0 mi North 5.8 mph - N/A   Overcast